Wind_Speed
56 56 56 56 55 55 55 55 56 56 57 57 57 58 58 58 58 57 57 57 57 57 58 58 59 59 59 59 60 61 61 61 61 61 61 61 61 61 61 61 61 60 60 60 60 60 59 59 58 58 58 57 57 58 57 57 58 59 60 60 61 61 61 61 61 61 60 61 61 60 58 57 56 56 58 60 62 63 65 65 64 62 61 61 61
58 57 57 57 56 56 55 55 55 56 57 58 58 59 60 60 61 61 61 61 61 60 60 61 61 62 62 62 63 63 64 64 64 64 64 64 64 64 64 64 64 63 63 63 63 63 62 62 61 61 61 61 60 61 61 60 60 60 60 60 61 62 62 62 62 62 62 63 63 61 60 60 59 58 59 60 60 60 62 63 63 64 65 65 63
59 59 59 58 58 57 57 56 56 56 57 58 58 59 60 61 62 63 64 64 65 65 64 64 64 65 65 65 66 66 66 67 67 67 67 67 67 67 67 67 67 66 66 66 66 67 66 65 65 65 64 64 64 64 64 64 63 63 62 62 62 62 62 63 63 63 63 64 64 63 62 62 61 61 62 62 61 59 59 60 61 62 64 65 66
64 63 62 61 61 60 60 60 60 60 61 61 61 62 62 63 64 64 65 66 67 68 68 69 69 69 69 69 69 69 69 69 69 70 70 70 70 70 70 70 70 69 69 69 69 70 70 69 69 69 68 67 67 67 67 67 66 66 66 65 65 64 64 64 64 63 63 64 65 64 64 63 62 64 66 65 63 61 61 61 61 61 62 62 64
69 69 68 67 67 66 66 65 65 64 64 64 64 65 66 67 67 68 68 68 69 69 70 71 73 73 74 74 74 74 73 73 73 73 73 73 74 74 74 74 73 73 72 72 72 72 73 73 73 73 72 72 71 70 70 70 70 69 69 68 68 67 67 67 67 66 65 66 66 65 64 64 64 67 68 66 65 64 63 63 63 62 62 62 63
72 72 72 72 72 71 71 70 69 67 66 66 66 65 66 67 68 69 70 71 72 73 73 73 74 75 76 76 77 78 78 78 78 78 78 78 78 78 78 78 78 77 77 76 76 75 75 76 76 76 76 76 75 75 74 74 74 73 73 72 71 70 69 69 69 69 69 69 68 67 67 66 65 67 67 68 68 67 66 66 66 65 64 64 64
73 73 73 74 74 73 73 73 72 71 70 70 69 68 67 68 69 70 71 72 74 75 76 77 78 78 79 79 80 80 81 82 82 82 82 82 82 82 82 82 82 81 81 81 80 79 79 79 79 79 79 79 79 79 79 78 78 78 77 76 75 74 73 71 71 72 71 70 71 71 70 69 67 67 68 68 68 69 69 70 69 69 68 67 67
72 72 73 73 73 73 73 74 74 74 74 74 73 73 73 73 74 74 74 74 75 76 78 79 80 81 82 83 83 84 85 85 85 85 84 84 84 84 85 85 86 86 85 85 84 84 83 83 83 82 82 82 82 82 82 82 81 81 81 81 80 79 78 76 75 75 74 73 73 73 72 71 69 68 68 69 69 69 70 71 72 72 71 69 69
69 71 72 73 74 75 75 76 76 77 78 78 79 79 79 79 80 80 80 80 80 81 82 82 83 84 86 86 86 87 88 88 88 88 88 87 87 87 87 88 89 89 89 89 89 88 88 87 87 86 86 85 85 85 84 84 84 84 84 84 84 84 83 82 80 80 79 77 77 76 75 74 73 71 70 70 70 70 70 72 73 73 72 72 72
72 73 75 76 78 79 80 80 80 81 82 83 84 85 85 85 86 87 87 87 87 88 89 89 88 89 90 91 91 91 91 92 92 91 91 91 91 91 91 91 92 92 92 93 93 93 93 92 91 90 90 89 89 88 88 88 88 87 87 87 86 86 87 86 85 84 84 83 82 81 79 78 77 75 73 73 73 72 72 72 74 74 73 73 74
76 76 78 80 82 83 84 84 85 86 87 88 90 91 92 92 93 93 93 94 94 95 96 96 96 95 95 95 96 96 97 97 97 97 96 95 95 94 95 95 96 96 96 96 96 96 96 96 96 95 94 93 93 92 92 91 91 91 91 91 90 89 89 89 88 88 88 88 87 86 84 83 81 79 78 77 76 75 74 74 75 76 74 74 76
81 81 81 83 84 86 88 89 90 90 91 92 93 96 98 99 99 99 99 99 100 101 102 103 103 102 101 100 100 100 101 102 104 104 103 101 100 99 98 98 99 99 99 99 99 98 98 98 98 98 97 96 95 95 95 95 95 95 95 95 94 93 93 92 91 91 91 91 91 91 89 88 86 85 83 82 80 79 78 76 77 78 77 76 78
86 86 86 87 88 90 91 93 94 95 95 96 97 99 102 103 104 104 105 106 106 106 106 107 108 108 107 106 105 105 105 106 107 108 109 109 108 107 105 103 102 102 102 103 102 101 101 100 100 100 100 100 99 99 98 98 98 98 98 98 98 97 96 95 95 94 94 93 93 94 93 92 91 90 89 87 85 83 82 80 80 81 79 79 80
91 92 92 93 93 95 96 97 99 101 102 103 103 104 106 107 108 109 109 110 111 111 111 111 112 113 113 113 112 112 111 111 110 111 112 113 114 114 113 111 109 108 107 106 106 106 105 104 104 103 104 104 104 104 103 103 102 102 102 101 101 100 100 99 98 98 98 97 96 96 95 95 95 94 93 92 90 88 86 84 84 84 83 82 82
98 99 100 100 101 103 104 105 106 107 109 110 110 110 110 111 112 112 113 113 114 115 115 115 116 117 118 118 118 118 117 117 116 115 115 116 117 118 118 118 117 116 114 113 111 110 110 109 109 108 108 108 108 108 108 107 107 106 106 105 104 103 103 102 102 102 102 101 100 99 98 97 97 97 96 95 94 93 91 89 88 87 86 85 85
107 108 109 109 109 110 110 111 111 112 113 114 114 114 114 114 114 114 114 115 116 116 117 117 118 119 120 121 122 122 122 122 122 122 121 120 120 121 121 122 122 122 121 120 119 117 116 115 114 114 114 113 113 113 112 111 111 110 109 109 109 108 107 106 106 106 106 105 104 103 102 101 101 101 100 99 98 97 95 94 93 92 90 88 88
114 115 115 115 115 114 114 114 115 115 116 116 116 116 115 115 114 114 114 114 115 116 117 117 118 119 120 121 123 124 125 126 126 127 127 126 125 125 125 125 125 125 125 125 125 125 124 122 121 120 119 119 118 117 117 117 116 115 114 113 113 112 112 111 111 110 110 109 109 108 107 106 106 105 104 103 102 101 100 99 98 97 96 93 91
119 119 119 119 118 118 118 118 117 117 116 116 116 115 114 114 113 113 112 112 113 113 114 115 116 117 117 118 120 121 124 126 128 129 130 130 130 130 129 129 129 129 129 129 129 129 129 129 128 127 127 126 125 123 122 121 121 120 119 119 118 118 117 116 116 115 114 114 113 113 112 111 111 110 109 107 106 105 105 104 103 102 101 98 96
121 121 122 122 122 121 121 120 119 118 117 116 115 114 113 112 112 111 111 111 111 111 111 111 112 113 114 115 116 117 119 122 124 127 129 131 132 133 133 133 132 132 132 133 133 133 133 133 132 132 132 132 132 131 130 129 127 126 125 124 124 123 122 121 121 120 119 118 117 117 116 116 116 116 115 114 112 111 110 109 108 107 106 104 102
122 123 124 124 123 123 122 121 120 119 117 116 115 113 112 111 111 110 110 109 109 109 109 109 110 110 111 112 113 114 115 117 120 123 126 128 130 132 133 134 135 135 135 135 135 135 136 136 137 137 136 136 136 136 136 136 135 134 133 131 130 129 127 126 126 125 124 123 122 121 121 120 120 120 119 119 119 118 117 115 114 113 112 110 108
124 125 125 125 124 124 123 122 120 119 117 116 115 114 112 112 111 110 110 109 108 108 108 108 108 109 109 110 111 112 113 115 116 118 121 124 126 129 131 132 134 136 136 137 137 137 138 138 139 140 141 140 140 140 140 140 140 140 139 138 137 136 134 133 131 130 129 128 127 126 125 125 125 124 124 124 124 124 123 122 120 119 117 116 114
126 126 126 125 125 124 123 121 120 119 117 116 115 114 113 112 111 110 109 108 107 107 107 107 107 108 108 109 110 111 112 113 115 116 118 120 122 124 126 128 130 133 134 136 137 138 139 139 140 141 142 143 144 144 144 143 143 143 143 143 142 141 141 140 138 137 135 133 132 131 130 130 130 129 128 128 128 128 128 127 126 125 123 122 121
128 127 127 126 125 124 123 121 120 119 117 116 115 114 113 112 111 110 109 108 107 107 107 107 107 107 108 109 110 111 112 113 114 115 116 117 119 120 122 124 126 128 130 132 134 135 137 138 139 140 142 143 144 146 147 147 146 146 146 146 146 146 145 144 143 143 142 140 138 137 135 135 135 134 133 133 133 133 132 132 131 130 129 127 127
128 128 127 126 125 124 123 121 120 118 117 116 115 114 113 111 110 109 108 108 107 107 107 107 107 107 108 109 110 111 112 113 114 115 115 117 118 119 120 121 122 124 126 127 129 131 132 134 136 137 139 141 143 144 146 148 150 150 150 149 149 149 149 148 147 147 146 146 145 143 142 141 140 139 138 137 137 137 137 136 135 135 134 133 132
129 128 127 126 125 124 122 121 119 118 116 115 114 113 112 111 110 109 108 107 107 106 106 106 106 107 108 108 109 110 111 112 113 114 115 116 117 118 119 120 121 122 123 125 126 127 128 129 131 133 135 137 139 141 143 145 148 150 152 153 153 153 152 151 151 150 150 150 149 148 147 147 146 145 144 143 143 142 142 141 140 139 139 138 138
129 128 127 125 124 123 122 120 119 117 116 115 114 112 111 110 109 108 107 106 106 105 105 105 105 105 106 107 108 109 110 111 112 113 114 115 116 117 118 119 120 121 122 123 124 125 126 127 128 129 131 132 134 136 138 140 143 146 149 151 153 155 156 155 154 154 153 153 152 152 151 151 151 150 149 148 148 147 147 146 145 144 144 144 143
129 128 126 124 123 122 121 120 119 118 117 115 113 111 110 108 107 106 105 104 103 103 102 102 102 103 103 104 105 106 107 108 109 111 112 113 114 116 117 118 119 120 121 123 124 125 126 127 127 128 129 130 131 132 134 136 138 140 142 145 147 150 152 155 157 157 157 156 155 154 154 154 154 154 154 153 153 152 152 151 150 149 149 149 148
128 127 125 124 122 121 121 120 119 118 116 114 112 110 108 106 104 103 102 101 101 100 100 100 100 100 100 100 101 102 103 104 106 107 108 110 111 113 114 116 117 119 120 121 122 124 125 126 127 127 128 129 129 130 131 133 134 135 136 138 139 141 144 147 150 153 156 158 158 158 158 157 157 157 157 157 157 157 156 155 155 154 154 154 153
126 125 124 123 122 121 120 119 118 116 114 111 109 107 105 103 102 101 100 99 99 99 98 98 98 97 97 97 98 99 100 101 102 103 105 106 107 109 110 112 114 115 117 118 120 121 122 124 125 126 127 128 128 129 130 131 132 132 133 133 134 134 136 137 139 142 146 150 153 156 158 159 160 160 160 160 160 160 160 159 159 159 159 158 157
125 124 124 123 122 121 120 118 115 113 110 108 106 104 103 101 101 100 99 98 97 97 97 96 96 96 95 95 95 96 97 98 99 100 102 103 104 105 106 108 109 111 112 114 115 117 118 119 120 122 123 124 126 127 129 130 131 131 131 131 130 130 130 130 131 133 135 138 141 144 148 151 155 158 160 162 163 163 163 163 162 162 162 162 161
125 125 123 122 121 119 117 114 111 109 107 105 103 102 100 99 98 98 97 96 95 95 95 95 95 94 94 95 95 95 96 97 98 99 100 100 101 103 104 105 106 107 108 109 110 112 113 114 116 116 118 119 121 123 125 127 128 129 129 128 128 127 127 127 127 127 128 130 132 134 136 138 141 145 149 153 157 160 163 164 166 166 166 166 165
125 123 122 120 117 114 112 109 107 106 104 103 101 100 98 97 96 95 95 94 94 93 93 93 93 93 94 94 94 95 95 96 97 97 98 99 100 101 102 103 104 105 106 107 108 108 109 111 112 112 113 114 116 118 120 122 123 124 125 125 124 124 124 125 125 126 126 126 127 129 130 131 132 133 136 139 142 146 150 154 158 161 164 166 167
122 120 118 115 112 109 107 106 105 104 102 101 100 99 98 97 96 95 94 93 93 93 93 93 93 93 93 93 93 94 94 94 95 96 96 97 98 99 99 100 101 102 103 104 105 106 107 108 109 110 110 111 112 115 117 118 118 119 120 121 120 119 119 120 121 122 123 124 125 126 126 127 128 129 130 132 133 135 137 140 143 145 148 151 155
117 114 112 109 107 105 104 103 102 101 101 100 99 99 98 97 96 95 94 93 92 92 92 92 92 92 92 92 92 92 92 93 93 94 94 95 96 96 96 97 97 97 98 99 100 102 103 105 106 107 107 108 110 113 114 115 115 116 116 116 115 114 114 115 116 117 119 120 121 122 123 124 125 127 128 129 130 131 132 133 134 134 134 135 137
111 108 107 105 104 103 102 101 101 100 100 99 98 98 98 97 96 95 94 93 92 91 91 91 91 91 91 91 91 91 91 91 92 92 93 93 94 94 94 94 95 95 96 96 97 98 99 100 101 102 102 103 106 109 111 112 113 113 113 112 111 111 111 111 112 114 116 117 118 119 119 120 121 122 124 126 127 128 129 129 130 130 129 129 128
106 105 104 103 102 102 101 101 100 100 99 99 98 98 97 97 96 94 93 92 91 91 91 91 91 91 91 91 91 90 91 91 91 91 92 92 92 92 92 93 93 94 94 95 95 96 97 97 98 98 99 99 101 105 106 106 107 109 110 110 110 110 109 109 110 111 112 113 114 115 115 115 116 117 119 121 123 124 124 124 124 125 125 126 126
104 103 103 102 102 101 101 100 100 99 99 99 98 97 97 96 95 94 93 92 92 91 91 91 91 90 90 90 90 90 90 91 91 91 91 91 91 92 92 92 92 92 93 94 94 95 95 95 95 96 97 97 99 101 102 101 102 104 105 106 107 108 108 108 108 109 110 110 111 111 111 111 111 112 114 117 120 121 120 119 119 119 120 121 121
103 103 103 102 101 101 100 99 99 99 98 98 97 96 96 95 94 93 93 92 92 91 91 91 90 90 90 89 89 89 90 90 90 90 90 90 91 91 91 91 91 91 92 93 93 93 93 94 94 95 97 97 97 98 99 99 100 101 101 101 102 103 104 105 105 107 108 109 109 109 109 108 107 108 110 113 115 116 117 116 115 116 116 115 115
103 103 103 102 101 100 99 99 98 98 97 97 96 96 95 95 94 93 92 91 91 91 91 91 90 90 89 89 88 89 89 89 89 89 89 90 90 90 90 90 90 90 91 91 91 91 91 93 94 95 96 95 95 96 97 97 98 99 98 98 98 98 99 100 101 102 104 105 106 107 107 107 106 106 107 109 110 111 111 111 111 112 112 111 111
103 103 102 100 99 98 98 97 97 97 96 96 95 95 94 94 93 92 92 91 91 91 90 90 90 89 88 88 88 88 88 88 88 88 88 89 89 89 89 90 90 90 89 89 90 90 90 92 94 95 95 94 94 95 96 96 97 97 96 96 96 96 96 96 97 97 98 100 101 102 103 104 104 104 105 106 107 107 107 106 106 107 107 106 108
103 101 100 99 97 96 96 96 96 96 95 95 95 94 94 93 93 92 91 91 90 90 89 89 88 87 86 86 86 86 86 86 86 86 86 87 87 87 87 88 88 88 87 87 88 88 89 91 93 94 94 93 93 94 94 95 96 95 95 94 94 94 94 93 94 94 95 96 97 98 98 100 101 101 102 103 103 104 105 104 102 102 102 103 106
101 99 98 97 96 95 95 95 95 95 95 95 94 93 93 92 91 91 90 90 89 88 88 87 86 86 85 85 84 84 84 84 84 84 84 84 85 85 85 85 85 84 84 84 85 86 87 88 91 92 92 92 92 92 93 94 94 94 93 93 93 93 92 92 92 92 93 93 94 95 95 96 97 98 98 99 100 101 101 101 100 100 101 102 104
99 98 97 96 96 95 94 94 94 94 94 93 93 92 91 90 89 89 88 88 87 87 87 86 85 85 84 84 84 84 84 83 83 83 83 83 84 84 83 83 83 82 81 82 83 84 85 86 88 89 90 90 90 90 91 91 92 92 92 92 92 92 92 91 90 90 91 92 92 93 93 94 95 95 96 97 98 98 98 98 98 98 99 100 101
98 97 97 96 95 94 93 92 92 92 92 92 91 90 88 87 87 86 86 86 86 86 86 85 85 84 84 83 83 83 83 82 82 81 82 82 82 82 82 82 81 80 80 81 82 83 84 85 86 87 88 89 88 88 88 89 89 89 90 90 91 91 91 90 89 88 89 90 91 92 92 93 93 94 94 95 96 96 96 95 96 96 97 98 98
96 95 94 94 93 92 91 91 91 91 90 90 89 87 86 85 84 84 84 84 85 85 85 84 84 83 82 82 82 82 81 80 80 80 80 80 80 80 79 79 78 78 78 79 80 82 83 84 85 86 87 88 88 87 87 86 86 86 87 88 88 88 88 88 87 87 87 88 89 90 91 92 93 93 93 94 94 94 94 94 94 94 95 95 96
94 92 91 90 90 89 89 89 89 88 88 88 87 85 83 83 83 84 84 84 84 84 83 83 82 81 80 80 80 79 78 78 78 78 78 78 77 76 76 76 75 75 75 76 77 78 80 80 82 83 84 85 86 86 85 84 84 84 84 85 85 86 86 86 85 85 85 85 86 87 89 91 92 92 92 92 92 92 93 92 92 92 92 93 94
92 90 89 88 87 87 87 87 86 86 85 85 84 82 82 82 83 83 83 83 83 82 82 81 80 79 78 78 77 77 76 76 76 76 76 76 75 74 73 73 73 72 72 73 73 75 76 76 77 79 80 81 82 82 81 81 80 81 81 82 82 83 83 83 83 83 83 83 83 85 86 88 90 90 90 89 89 89 90 90 90 90 90 90 92
91 89 88 86 86 85 85 85 84 83 83 82 82 81 81 81 81 81 80 80 80 80 80 80 79 78 77 77 76 75 75 75 76 76 76 75 74 73 72 71 71 70 69 70 71 72 73 73 74 75 76 77 78 78 77 76 76 76 77 77 78 78 78 79 79 79 79 80 80 81 82 84 86 87 88 87 86 85 86 87 88 87 87 87 89
89 88 86 85 85 84 84 83 82 81 81 81 80 80 79 79 79 78 78 78 78 78 78 78 78 77 76 76 76 75 75 75 75 75 75 74 74 73 71 70 70 69 68 67 68 69 71 72 72 73 73 74 75 75 74 73 72 73 73 73 74 74 74 74 74 75 75 76 76 76 77 78 81 82 84 85 85 82 81 82 84 84 84 84 85
87 86 86 85 84 83 82 82 81 80 79 79 79 78 77 77 77 76 76 76 76 76 77 77 77 76 76 76 76 75 75 74 74 74 74 74 74 73 71 69 69 69 68 66 66 67 69 70 71 71 72 72 72 72 72 71 71 71 71 71 71 71 71 71 70 71 73 73 73 73 74 75 76 77 78 81 82 81 78 78 80 81 81 81 80
86 86 85 85 84 83 82 81 80 79 78 78 77 76 75 75 75 74 74 74 74 74 75 75 75 75 75 75 75 74 74 74 73 72 72 72 73 73 72 69 68 67 68 67 66 66 67 68 69 69 70 71 71 70 69 69 69 69 69 69 69 69 69 68 67 68 70 71 70 70 71 72 72 73 74 75 78 79 78 75 76 78 79 79 77
Wind_Direction
281 281 281 281 281 280 280 279 278 278 277 277 276 275 274 273 273 273 273 273 273 274 274 274 274 273 272 273 273 274 274 275 275 275 275 274 274 273 273 272 272 271 270 269 269 268 266 264 262 261 261 260 261 261 261 260 260 259 259 259 259 259 258 258 259 259 259 258 257 257 258 258 258 258 258 259 259 259 260 261 261 261 260 259 257
279 279 279 280 279 280 280 280 280 279 279 278 277 277 276 274 274 273 272 271 271 271 271 272 272 272 271 271 272 272 273 274 274 274 274 273 273 273 273 273 272 272 271 270 269 268 267 266 265 263 262 261 260 260 260 260 260 260 259 260 260 260 260 259 259 258 258 258 258 258 258 258 257 257 257 257 257 258 258 260 260 260 260 260 259
276 276 277 277 277 277 277 278 278 278 278 278 278 278 277 276 275 275 274 272 271 270 269 269 269 269 269 269 269 269 270 271 272 272 272 272 272 272 272 272 272 272 271 271 271 270 269 267 266 265 264 263 262 261 260 260 260 259 259 259 259 260 261 261 260 260 259 260 260 259 258 258 258 257 256 256 256 257 258 258 258 258 259 259 259
275 275 275 275 275 275 275 275 275 276 276 276 276 276 276 275 275 275 274 274 273 272 270 269 268 267 267 267 267 267 267 267 268 269 270 270 270 270 270 270 270 270 270 270 270 270 270 269 268 267 265 264 263 263 262 261 260 260 259 258 258 258 259 260 261 261 261 261 260 259 259 258 258 257 257 257 257 257 257 257 258 258 258 257 258
273 273 273 273 273 273 273 273 274 274 275 275 275 276 276 276 275 275 274 273 273 272 271 270 269 268 267 267 266 266 266 265 265 266 267 267 267 268 268 268 268 268 268 267 268 268 268 268 268 268 267 266 265 264 264 263 262 261 260 259 259 258 258 259 260 260 260 260 260 260 260 259 258 258 258 258 258 257 256 257 257 257 257 257 256
271 271 271 271 271 271 271 272 272 272 273 274 274 274 275 275 275 275 274 273 273 272 271 270 269 269 268 267 267 266 265 265 264 264 265 265 265 266 266 266 266 266 265 265 265 266 266 266 266 266 266 266 266 266 265 265 264 263 262 261 260 259 258 258 259 259 259 259 260 260 260 259 258 259 259 259 258 258 257 256 256 256 256 256 256
270 270 270 270 270 271 271 271 271 271 271 272 272 272 272 272 273 273 273 272 272 272 271 271 270 269 268 268 267 266 265 265 264 264 264 263 263 263 264 264 264 264 263 263 263 264 264 264 264 264 265 265 265 265 265 265 265 265 264 264 263 262 260 259 259 259 258 259 259 259 259 259 258 258 259 259 258 258 257 256 256 255 255 255 255
271 271 271 271 271 272 273 272 272 272 272 272 271 272 273 273 273 272 272 271 271 270 270 270 270 269 269 268 267 267 266 265 264 263 263 263 263 262 262 262 262 262 262 262 261 262 262 262 262 263 263 263 264 264 264 264 264 264 264 264 264 264 263 262 260 260 259 258 258 258 258 258 257 257 258 258 259 258 258 257 257 256 256 255 256
273 273 273 273 273 273 274 275 275 275 275 275 274 273 274 274 273 272 271 270 270 269 269 269 269 269 269 268 267 267 266 265 264 263 262 262 262 262 262 261 261 260 260 260 261 261 260 260 261 261 261 262 262 263 263 264 264 264 264 264 263 263 264 263 262 262 261 260 259 258 257 257 256 256 256 257 257 258 258 259 258 257 257 256 256
274 273 273 274 274 274 274 274 274 275 275 275 275 275 275 274 273 272 271 270 270 270 270 269 269 269 268 268 267 266 265 265 264 263 262 262 261 261 261 261 261 260 260 260 260 260 260 259 259 259 260 260 260 261 262 262 263 264 264 264 263 262 262 262 262 262 262 262 261 259 258 257 256 255 255 255 255 256 257 258 259 259 258 257 257
274 274 273 273 275 275 275 275 275 275 275 275 275 275 275 275 274 273 271 270 270 270 270 270 269 269 268 267 266 266 265 264 264 263 262 262 261 260 260 260 260 260 260 260 260 260 260 259 259 258 258 258 259 260 260 261 261 262 263 264 264 263 262 261 261 261 261 262 262 261 260 259 258 257 255 254 254 254 254 256 258 259 258 258 257
274 274 273 273 274 275 276 276 276 275 275 275 276 276 276 276 275 273 272 270 270 270 270 270 269 269 268 267 266 265 264 264 264 263 262 262 261 260 260 259 259 260 260 260 260 259 259 258 258 258 257 256 257 257 258 259 260 260 261 262 263 263 263 263 261 260 259 259 260 260 260 260 259 258 257 256 255 254 253 253 255 256 257 257 257
278 278 277 277 276 276 276 276 276 276 276 276 276 277 278 278 277 276 274 272 270 269 269 269 269 269 268 267 266 265 264 263 263 263 262 262 261 260 260 259 258 258 258 259 259 258 258 257 256 256 256 256 256 256 256 257 258 258 259 260 261 261 262 262 262 261 260 259 258 258 259 259 259 259 259 258 257 255 254 253 253 254 255 255 256
285 284 284 284 283 282 281 281 280 281 281 280 279 278 278 278 278 277 276 275 273 271 269 268 268 269 268 267 266 265 264 263 262 261 261 260 261 261 260 259 258 258 257 257 257 257 257 256 256 255 255 255 256 256 256 256 256 256 257 257 258 259 260 260 261 261 261 260 258 257 257 257 258 258 258 258 258 257 255 254 253 253 253 254 254
291 290 290 289 289 288 288 287 286 285 285 284 283 281 280 278 278 277 277 276 275 273 271 270 269 269 268 267 266 265 265 264 263 261 260 259 259 259 259 259 259 258 257 257 256 256 256 256 255 255 254 254 255 255 256 256 256 256 256 255 256 256 257 258 259 259 259 259 259 258 257 256 256 256 256 257 257 257 256 255 254 253 253 253 253
295 294 293 293 292 291 290 289 288 287 287 286 285 284 283 282 281 280 278 277 276 275 274 273 271 270 269 268 267 266 265 264 263 263 261 260 259 258 258 258 258 258 258 257 256 256 255 255 255 255 254 254 254 254 254 255 255 255 255 255 255 255 255 255 256 257 257 258 258 257 257 256 256 255 255 255 255 255 255 255 255 254 253 252 253
295 295 295 294 293 292 291 290 289 288 287 286 286 285 285 284 283 282 281 280 278 277 276 274 273 272 270 269 268 267 266 265 264 263 262 261 260 259 258 257 257 257 257 257 257 257 256 255 255 254 254 254 254 254 254 254 254 254 254 254 255 255 254 254 255 255 256 256 257 257 256 256 255 255 255 254 254 254 254 255 255 255 254 253 252
295 295 295 294 293 292 291 290 289 288 288 287 286 286 285 284 283 283 282 281 279 278 277 275 274 273 271 270 269 267 266 265 265 264 263 262 261 260 259 258 257 256 256 256 256 256 256 256 256 255 255 254 254 254 254 254 254 254 254 254 254 254 254 254 254 254 255 255 256 256 256 256 255 255 255 254 254 254 254 254 254 254 254 253 253
295 295 294 294 293 292 292 291 290 289 289 288 287 286 285 284 283 282 281 280 279 278 277 276 275 274 272 271 270 268 267 266 265 264 263 262 262 261 260 259 258 257 256 255 255 255 255 255 256 255 255 255 255 254 254 254 253 253 253 253 254 254 254 254 254 254 254 254 254 255 255 256 256 255 255 255 254 254 253 253 254 254 254 254 253
294 294 294 294 293 293 292 292 291 291 290 289 288 287 286 285 283 282 281 280 279 278 277 276 275 274 273 271 270 269 268 266 265 264 263 263 262 261 261 260 259 258 257 256 255 255 255 255 255 255 255 255 255 254 254 254 254 253 253 253 253 253 253 253 253 253 253 253 253 254 254 254 255 255 256 256 256 255 255 254 254 254 254 253 253
294 294 294 294 294 293 293 293 292 291 291 290 289 288 286 285 284 283 282 280 279 278 277 276 275 274 273 272 271 270 269 268 267 266 265 264 263 262 261 261 260 260 259 258 257 256 255 255 254 254 254 254 254 254 254 254 254 253 253 253 253 253 253 253 253 253 253 253 253 253 253 254 254 254 255 255 256 256 256 256 255 255 255 254 253
295 295 295 294 294 294 293 293 292 291 290 290 289 288 287 286 285 283 282 281 279 278 277 276 275 274 273 272 272 271 270 269 268 267 266 265 264 264 263 262 262 261 260 260 259 258 257 256 255 255 254 253 253 253 253 253 253 253 253 253 253 253 253 253 253 252 252 253 253 253 253 253 254 254 254 255 255 256 256 256 256 256 256 255 255
296 296 295 295 294 294 293 293 292 291 290 289 289 288 287 286 285 284 282 281 279 278 277 276 275 274 273 272 272 271 270 270 269 268 267 267 266 265 264 264 263 263 262 261 261 260 260 259 258 257 256 255 254 253 253 253 253 253 253 253 253 253 253 253 253 253 253 253 253 253 253 253 253 254 254 254 255 256 256 256 256 256 256 256 256
296 295 295 294 294 294 293 293 292 291 291 290 289 288 287 286 285 283 282 281 280 278 277 276 275 274 274 273 272 271 270 270 269 269 268 267 267 266 266 265 265 264 264 263 262 262 261 260 260 259 258 257 256 255 254 253 253 252 252 252 252 252 252 252 253 253 253 253 253 253 253 253 253 254 254 254 255 255 256 256 256 257 257 256 256
296 295 295 294 294 294 293 292 292 291 291 290 289 287 286 285 284 283 282 281 280 279 278 277 276 275 274 273 272 271 271 270 269 269 268 267 267 266 266 266 265 265 264 264 264 263 262 262 261 260 260 259 258 257 257 255 254 254 253 252 252 252 253 253 253 253 253 253 254 254 254 254 254 254 254 254 254 255 255 256 256 256 257 257 257
295 295 295 294 294 294 293 293 292 291 290 289 288 287 286 285 284 283 282 281 280 279 278 277 276 275 274 273 272 272 271 270 270 269 268 268 267 267 266 266 265 265 264 264 264 264 263 263 262 262 261 260 260 259 258 258 257 256 255 254 253 253 253 253 253 253 253 253 253 254 254 254 254 254 254 254 254 255 255 255 255 256 256 256 257
295 295 295 294 294 294 293 292 292 291 290 289 288 287 287 286 285 284 283 281 280 279 278 277 276 275 274 273 273 272 271 271 270 270 269 269 268 267 267 266 266 265 264 264 264 264 264 264 263 263 262 262 261 261 260 259 259 258 257 257 256 255 254 254 254 254 254 254 254 253 253 254 254 254 254 254 254 254 255 255 255 255 256 256 256
295 295 295 294 294 293 293 292 291 291 290 289 289 288 287 286 285 284 283 282 281 280 279 278 277 276 275 274 274 273 272 271 270 270 269 268 268 268 267 267 266 266 265 265 264 264 264 264 264 264 263 263 263 262 262 261 261 260 260 259 258 258 257 256 255 255 255 254 254 254 254 254 254 254 254 254 254 255 255 255 255 255 256 256 257
294 294 294 294 293 293 292 292 291 290 290 289 288 287 287 286 285 284 283 283 282 281 280 280 279 278 277 276 275 274 273 272 271 271 270 269 268 268 267 267 267 266 266 266 265 265 264 264 264 264 264 264 264 264 263 263 263 262 262 261 260 260 259 259 258 257 257 256 256 255 255 255 254 254 254 254 254 255 255 255 255 255 255 256 256
295 294 294 294 293 292 292 291 290 289 289 288 288 287 287 286 285 285 284 284 283 283 282 282 281 280 279 278 277 276 275 274 273 272 271 270 270 269 268 268 267 267 266 266 266 266 265 265 265 265 265 264 264 264 264 264 264 263 263 263 262 262 261 260 260 259 259 258 258 258 257 256 256 256 255 255 255 255 255 255 255 255 255 256 256
295 294 294 293 292 291 291 290 289 289 288 287 287 286 286 286 285 285 285 285 284 284 283 283 282 281 280 279 277 276 275 274 273 272 272 271 271 270 269 269 268 268 267 267 266 266 266 266 265 265 265 265 265 264 264 264 264 264 264 264 263 263 263 262 262 261 260 260 260 259 259 258 258 257 257 257 256 256 256 256 256 255 256 256 256
294 293 293 292 291 291 290 290 289 289 288 288 288 287 287 287 287 286 286 286 285 284 283 282 281 280 279 278 277 276 275 274 273 272 272 271 270 270 269 269 268 268 268 268 268 268 267 267 266 266 265 265 265 264 264 264 264 264 264 263 263 263 263 263 263 262 262 261 261 260 260 260 259 259 259 258 258 258 257 257 257 256 256 256 256
293 292 292 291 291 290 290 290 290 289 289 289 289 289 289 289 288 288 287 286 286 285 284 283 282 281 279 278 277 276 276 275 274 273 273 272 271 270 269 269 268 268 268 268 268 268 268 268 267 267 267 266 266 265 265 265 264 264 264 264 264 263 263 263 263 263 263 262 262 261 261 261 260 260 260 260 259 259 259 259 258 258 257 257 257
292 291 291 290 290 290 290 290 290 290 290 290 290 290 290 290 289 288 287 286 286 285 284 283 282 281 280 280 279 278 277 277 276 275 275 274 273 272 272 271 270 270 269 268 268 267 267 267 267 267 267 267 267 266 266 266 266 265 265 265 265 265 264 264 263 263 263 263 262 262 261 261 261 260 260 260 259 259 259 259 259 259 259 258 257
291 291 290 290 290 290 290 290 290 290 290 290 291 291 291 290 290 289 288 287 286 286 285 284 283 283 282 281 281 280 279 278 277 276 276 275 274 274 273 273 272 272 271 270 270 269 268 267 267 267 266 266 266 265 266 266 266 267 267 267 267 266 265 264 263 263 262 262 261 261 261 260 260 260 260 260 259 259 258 258 258 258 259 259 259
290 290 290 290 290 290 291 291 291 291 292 292 292 291 291 290 289 289 288 288 287 287 286 285 284 284 283 282 282 281 280 279 279 278 277 276 276 275 274 274 273 273 272 271 271 270 270 269 269 269 268 267 266 265 265 266 266 266 267 267 267 267 266 265 264 264 263 262 262 261 261 260 260 260 260 260 260 259 258 258 257 257 258 258 258
290 290 290 291 291 291 292 292 292 292 292 292 291 290 290 290 289 289 289 288 288 287 286 285 284 284 283 283 282 282 281 280 279 279 278 277 277 276 275 274 274 273 273 272 272 271 271 271 270 270 269 268 267 267 267 266 266 265 265 265 266 266 266 266 266 266 265 265 265 264 263 262 261 261 260 260 260 260 260 259 259 258 258 257 258
291 291 291 291 291 292 292 292 292 292 291 291 290 290 290 290 290 289 289 289 288 287 286 285 285 284 283 283 282 281 281 280 279 279 278 278 277 276 275 275 274 274 273 273 272 272 272 272 271 270 269 269 269 268 268 268 267 266 266 265 265 265 265 265 265 265 266 266 266 266 265 264 263 262 261 261 260 260 260 260 260 259 259 258 258
291 291 291 291 292 292 292 292 292 291 290 290 290 290 290 290 290 289 289 288 287 287 286 285 285 284 283 282 282 281 280 280 279 279 278 278 277 277 277 276 275 274 274 273 273 273 273 272 272 271 270 270 269 269 269 268 268 267 267 267 266 266 265 265 265 265 265 265 265 265 265 266 265 264 263 263 262 261 261 260 260 259 259 259 259
290 291 291 292 292 292 292 291 291 291 291 291 290 290 290 290 289 289 288 287 286 286 285 284 284 283 283 282 281 281 280 279 279 279 278 278 278 277 277 276 276 275 275 275 275 274 274 273 273 272 271 271 270 270 269 269 269 268 268 268 267 267 266 266 265 265 265 265 265 264 265 265 265 265 264 264 263 263 263 262 261 260 260 259 259
291 291 292 292 292 291 291 291 291 291 291 291 290 290 290 289 289 288 287 287 286 285 285 284 284 283 282 282 281 281 280 279 279 278 278 278 277 277 277 276 276 276 276 276 276 275 274 274 273 273 273 272 271 271 270 270 270 269 269 269 268 268 267 267 266 266 265 265 265 265 264 264 264 264 264 264 263 264 263 263 263 262 261 259 258
291 291 291 291 291 291 291 292 292 291 291 290 290 289 289 288 288 288 288 287 287 286 285 285 284 284 283 283 282 281 281 280 280 279 279 279 278 278 277 277 277 277 277 277 276 275 275 274 274 273 273 273 272 271 271 271 271 270 270 270 269 269 268 268 267 267 267 266 266 265 265 265 264 264 264 263 263 263 263 263 263 262 261 260 258
291 291 291 291 291 292 292 292 291 290 290 289 289 288 288 288 288 288 288 287 287 286 286 285 285 285 284 284 283 283 282 281 281 281 280 280 279 279 278 278 278 278 278 277 277 276 276 275 274 274 274 273 273 272 272 271 271 271 271 271 270 270 269 269 268 268 268 268 267 266 266 265 265 264 264 263 263 262 262 262 262 261 261 260 260
290 290 291 291 292 292 291 291 290 289 289 288 288 288 289 289 288 288 287 287 287 286 286 286 286 285 285 285 284 283 283 283 282 282 281 280 279 279 279 279 279 278 278 277 276 276 275 275 275 275 275 274 274 273 272 272 272 272 272 272 271 271 270 270 269 269 268 268 268 267 267 266 265 265 264 263 263 262 262 261 261 261 260 260 260
289 290 290 291 291 291 291 290 289 289 289 289 289 289 289 289 288 288 288 287 287 287 287 286 286 286 285 285 285 284 284 284 283 282 281 281 280 280 280 279 279 278 277 276 276 275 275 274 274 274 274 275 274 274 273 273 273 273 272 272 272 272 271 271 270 270 269 268 268 268 267 266 265 265 264 263 263 263 262 261 261 260 260 260 260
290 290 290 290 290 290 290 289 289 289 289 289 289 290 290 289 289 289 288 288 288 288 287 287 286 286 286 286 285 285 285 285 284 283 282 281 281 281 280 280 279 278 277 276 276 275 274 274 274 273 274 274 274 274 274 274 273 273 273 272 272 272 272 272 271 270 270 269 269 268 268 267 266 265 264 263 263 263 262 262 261 260 260 260 260
291 291 290 290 290 290 289 289 289 289 289 289 289 290 290 290 289 289 289 289 288 288 288 287 287 287 287 287 286 286 286 285 285 284 283 283 282 282 281 280 280 279 278 278 277 276 275 275 274 274 274 274 274 274 274 274 274 273 273 272 272 272 271 271 271 270 270 269 268 268 268 267 267 267 266 265 263 263 263 262 261 260 259 258 258
291 291 291 290 290 290 289 289 289 289 289 289 289 290 290 290 289 289 289 289 289 288 288 288 288 288 288 288 287 287 286 286 285 285 284 284 284 283 282 281 280 280 279 278 278 277 277 276 276 275 275 275 275 275 275 275 274 274 273 273 272 272 271 271 270 270 269 268 267 266 266 267 267 267 267 266 265 264 263 263 262 260 259 258 257
291 291 291 291 290 289 289 289 289 289 290 290 290 290 290 290 289 289 289 289 289 289 289 289 289 289 288 288 287 287 286 285 285 285 285 285 285 284 283 282 281 280 279 278 278 278 278 277 277 277 276 276 277 277 277 276 275 275 274 274 273 273 272 272 271 271 270 269 268 267 266 265 265 266 266 267 266 265 263 263 263 262 260 258 257
291 291 291 291 290 290 290 290 290 290 290 290 290 290 290 289 289 289 289 289 289 289 289 288 288 288 288 287 287 286 286 285 285 285 285 285 285 284 283 282 282 282 281 279 278 278 278 278 278 278 278 278 278 278 278 278 277 276 276 275 274 273 273 272 272 271 271 270 269 268 267 266 265 264 265 265 266 266 264 263 263 262 261 259 258
291 291 291 291 291 291 291 291 291 291 291 291 290 290 290 289 289 289 289 288 288 288 288 288 287 287 287 286 286 286 285 285 285 285 285 285 285 285 284 283 281 281 281 280 280 279 278 278 278 279 279 279 279 279 279 279 279 278 278 277 276 275 274 273 272 272 271 270 269 268 268 267 266 265 264 264 265 265 265 263 262 262 262 261 259
Height
10719 10719 10718 10718 10718 10718 10719 10719 10719 10718 10717 10717 10717 10716 10716 10715 10715 10714 10714 10714 10713 10712 10711 10710 10709 10709 10708 10708 10707 10706 10705 10704 10703 10702 10701 10700 10698 10697 10697 10696 10696 10696 10695 10695 10694 10693 10693 10693 10693 10693 10692 10692 10692 10691 10691 10691 10691 10691 10690 10690 10690 10690 10690 10689 10689 10689 10690 10690 10689 10690 10692 10694 10694 10694 10693 10692 10692 10693 10694 10694 10697 10700 10700 10700 10701
10713 10713 10712 10712 10711 10711 10711 10711 10711 10711 10710 10709 10709 10708 10708 10708 10707 10706 10706 10706 10706 10705 10704 10703 10702 10701 10700 10700 10699 10698 10697 10696 10695 10695 10694 10692 10691 10690 10689 10688 10688 10688 10687 10687 10686 10686 10685 10685 10685 10685 10684 10684 10684 10683 10683 10683 10683 10683 10684 10684 10683 10683 10683 10683 10683 10683 10682 10681 10682 10685 10686 10685 10686 10686 10684 10682 10683 10685 10687 10688 10690 10691 10691 10691 10693
10707 10706 10706 10705 10705 10705 10705 10705 10704 10704 10703 10702 10702 10701 10700 10699 10698 10697 10697 10697 10696 10696 10696 10695 10694 10693 10692 10691 10691 10690 10689 10688 10687 10686 10685 10684 10683 10682 10681 10680 10679 10679 10679 10678 10678 10677 10677 10676 10676 10676 10676 10675 10675 10675 10675 10675 10675 10675 10676 10676 10676 10677 10676 10676 10676 10676 10676 10675 10675 10678 10678 10678 10680 10678 10674 10673 10677 10679 10680 10680 10681 10681 10682 10683 10684
10701 10700 10699 10699 10699 10698 10698 10697 10697 10696 10696 10695 10694 10693 10692 10691 10690 10689 10688 10687 10686 10686 10686 10685 10684 10684 10683 10682 10682 10681 10680 10680 10679 10677 10676 10675 10674 10673 10672 10671 10671 10670 10670 10670 10669 10668 10668 10667 10666 10666 10666 10666 10667 10666 10666 10666 10666 10666 10667 10667 10668 10669 10669 10668 10668 10669 10670 10668 10667 10670 10670 10672 10673 10668 10664 10667 10671 10672 10671 10671 10672 10673 10674 10675 10675
10694 10693 10692 10692 10691 10691 10690 10689 10689 10688 10687 10687 10686 10686 10684 10683 10682 10681 10680 10678 10677 10676 10675 10674 10674 10673 10673 10672 10671 10671 10670 10670 10670 10669 10668 10666 10665 10664 10663 10662 10661 10661 10661 10660 10660 10659 10659 10658 10657 10656 10656 10656 10657 10657 10656 10656 10656 10657 10657 10657 10659 10660 10660 10660 10660 10661 10661 10659 10659 10662 10662 10663 10664 10659 10659 10661 10662 10663 10663 10664 10664 10665 10665 10666 10667
10685 10684 10684 10683 10682 10682 10681 10681 10680 10680 10679 10678 10678 10677 10676 10674 10673 10672 10671 10669 10668 10666 10665 10664 10663 10662 10661 10661 10660 10659 10658 10658 10658 10658 10658 10657 10656 10655 10654 10653 10652 10651 10651 10650 10650 10650 10649 10649 10647 10646 10646 10646 10646 10647 10647 10646 10646 10646 10647 10648 10649 10649 10651 10652 10652 10650 10650 10650 10651 10653 10653 10654 10655 10653 10653 10654 10654 10655 10655 10655 10655 10655 10656 10658 10658
10677 10676 10675 10674 10673 10673 10672 10671 10671 10670 10670 10669 10668 10668 10667 10666 10665 10663 10662 10660 10658 10657 10655 10654 10652 10651 10650 10649 10648 10647 10646 10646 10646 10645 10645 10645 10645 10644 10643 10642 10642 10641 10640 10640 10639 10639 10639 10638 10638 10637 10636 10636 10636 10636 10636 10636 10636 10636 10636 10637 10638 10638 10640 10642 10642 10640 10641 10642 10641 10641 10643 10644 10646 10646 10645 10645 10646 10647 10646 10645 10646 10645 10647 10649 10649
10669 10667 10666 10665 10664 10663 10662 10661 10661 10660 10659 10658 10657 10657 10656 10655 10654 10653 10652 10650 10648 10647 10645 10643 10642 10640 10638 10638 10636 10635 10634 10633 10633 10632 10632 10632 10632 10632 10632 10631 10630 10630 10629 10629 10628 10628 10628 10628 10627 10627 10626 10626 10625 10625 10625 10625 10625 10626 10626 10626 10627 10627 10628 10631 10631 10630 10631 10632 10631 10631 10633 10634 10636 10638 10638 10637 10637 10638 10637 10636 10636 10636 10638 10641 10640
10660 10658 10656 10655 10653 10653 10652 10651 10650 10649 10647 10646 10645 10644 10644 10643 10641 10640 10639 10638 10636 10634 10633 10632 10631 10629 10627 10626 10624 10623 10621 10620 10620 10619 10619 10619 10618 10618 10618 10618 10617 10617 10617 10617 10617 10617 10617 10617 10616 10616 10615 10615 10614 10614 10614 10613 10614 10614 10614 10615 10616 10616 10617 10619 10620 10620 10620 10621 10620 10621 10623 10624 10625 10627 10629 10628 10628 10629 10629 10628 10627 10627 10631 10632 10630
10649 10649 10646 10644 10642 10641 10640 10639 10638 10637 10635 10633 10632 10630 10630 10629 10627 10626 10625 10623 10622 10620 10619 10618 10617 10616 10614 10613 10611 10610 10608 10606 10605 10605 10604 10604 10604 10604 10603 10603 10603 10603 10603 10603 10604 10604 10604 10605 10605 10604 10604 10603 10602 10602 10602 10602 10602 10602 10602 10603 10604 10604 10605 10607 10609 10609 10609 10610 10609 10610 10611 10612 10613 10616 10618 10618 10618 10620 10621 10620 10617 10618 10622 10622 10621
10636 10637 10636 10633 10631 10629 10627 10627 10626 10625 10623 10621 10618 10616 10614 10613 10612 10611 10609 10608 10606 10603 10602 10601 10600 10600 10599 10598 10597 10596 10595 10593 10591 10590 10589 10589 10589 10589 10589 10588 10587 10587 10588 10589 10589 10590 10591 10591 10591 10592 10592 10591 10591 10590 10590 10590 10590 10590 10590 10590 10591 10592 10593 10594 10597 10598 10598 10598 10598 10598 10599 10600 10601 10604 10605 10605 10607 10610 10611 10612 10610 10608 10612 10613 10611
10623 10623 10623 10621 10618 10616 10613 10612 10611 10610 10609 10607 10604 10601 10598 10596 10595 10594 10592 10591 10589 10588 10585 10583 10582 10582 10582 10582 10581 10580 10579 10578 10576 10575 10574 10574 10574 10573 10573 10573 10573 10572 10572 10573 10574 10575 10576 10577 10577 10577 10578 10578 10578 10578 10578 10577 10577 10577 10577 10578 10578 10579 10580 10581 10584 10584 10585 10586 10586 10586 10587 10588 10589 10590 10591 10592 10595 10598 10599 10603 10602 10598 10601 10604 10601
10609 10608 10609 10608 10605 10603 10600 10597 10595 10594 10592 10591 10589 10586 10582 10579 10577 10576 10575 10573 10572 10571 10570 10567 10565 10564 10564 10564 10564 10563 10563 10562 10561 10559 10558 10558 10557 10557 10557 10557 10557 10556 10556 10556 10557 10558 10560 10561 10562 10562 10563 10563 10564 10564 10565 10565 10564 10564 10564 10564 10565 10566 10567 10569 10570 10570 10571 10573 10574 10573 10574 10576 10576 10576 10577 10579 10582 10584 10587 10591 10591 10587 10591 10594 10591
10595 10593 10592 10592 10590 10588 10586 10583 10580 10578 10575 10574 10572 10570 10566 10563 10561 10559 10557 10555 10553 10552 10552 10551 10548 10546 10545 10545 10545 10544 10544 10543 10543 10543 10542 10540 10539 10539 10539 10540 10540 10540 10540 10540 10540 10541 10542 10544 10545 10547 10547 10548 10548 10548 10549 10550 10550 10550 10550 10550 10551 10551 10553 10555 10556 10556 10557 10558 10560 10561 10562 10563 10563 10562 10563 10566 10568 10570 10573 10577 10577 10577 10580 10583 10582
10580 10578 10577 10576 10575 10573 10571 10568 10565 10562 10559 10556 10553 10551 10549 10546 10544 10542 10540 10538 10535 10533 10533 10533 10531 10529 10527 10526 10525 10525 10524 10524 10524 10523 10523 10523 10522 10521 10520 10521 10522 10522 10523 10523 10523 10524 10524 10526 10527 10529 10530 10531 10532 10532 10533 10533 10534 10534 10535 10536 10536 10537 10539 10540 10541 10542 10543 10544 10545 10547 10549 10549 10549 10549 10550 10552 10554 10556 10559 10561 10562 10565 10568 10571 10572
10565 10564 10563 10562 10561 10559 10557 10553 10550 10546 10542 10538 10535 10532 10530 10528 10526 10524 10522 10520 10517 10515 10513 10512 10511 10510 10509 10507 10505 10505 10504 10504 10504 10503 10503 10503 10503 10503 10502 10502 10502 10503 10504 10505 10505 10506 10506 10507 10509 10510 10511 10513 10514 10516 10516 10517 10517 10518 10518 10519 10520 10522 10524 10524 10524 10526 10528 10529 10531 10533 10535 10535 10534 10534 10537 10539 10540 10542 10544 10546 10548 10551 10555 10558 10560
10550 10549 10548 10546 10545 10542 10540 10536 10533 10529 10525 10522 10518 10515 10513 10511 10508 10505 10503 10500 10497 10495 10493 10491 10490 10489 10488 10487 10485 10485 10484 10483 10483 10482 10482 10482 10482 10483 10483 10483 10483 10483 10484 10485 10486 10487 10488 10489 10490 10491 10492 10493 10495 10497 10498 10499 10501 10501 10502 10502 10503 10504 10507 10508 10508 10510 10512 10513 10515 10517 10519 10521 10519 10519 10522 10525 10526 10527 10530 10531 10533 10536 10538 10544 10549
10537 10535 10532 10529 10527 10524 10521 10518 10514 10511 10507 10504 10501 10498 10495 10492 10490 10487 10484 10480 10477 10475 10473 10471 10469 10466 10465 10465 10464 10463 10462 10461 10461 10460 10460 10460 10460 10461 10462 10463 10463 10464 10464 10465 10465 10467 10468 10470 10471 10472 10473 10474 10475 10477 10478 10480 10482 10483 10484 10485 10486 10487 10489 10490 10491 10493 10495 10496 10499 10500 10502 10504 10504 10505 10507 10509 10511 10513 10514 10516 10518 10520 10522 10529 10535
10523 10520 10516 10512 10509 10506 10502 10499 10496 10493 10489 10486 10482 10479 10476 10473 10470 10467 10464 10461 10457 10454 10452 10450 10448 10445 10443 10442 10441 10440 10439 10439 10438 10437 10437 10437 10437 10438 10439 10440 10442 10443 10444 10444 10445 10446 10447 10448 10450 10451 10453 10454 10455 10457 10459 10460 10462 10463 10465 10466 10467 10469 10471 10472 10472 10475 10477 10479 10481 10483 10485 10486 10487 10489 10491 10492 10494 10496 10499 10501 10503 10505 10507 10512 10518
10508 10504 10499 10495 10491 10487 10484 10480 10477 10474 10470 10467 10463 10460 10457 10453 10450 10447 10443 10441 10437 10434 10432 10429 10427 10425 10423 10421 10419 10418 10417 10416 10416 10415 10415 10415 10415 10415 10416 10417 10418 10420 10421 10423 10424 10425 10426 10427 10428 10429 10431 10432 10434 10436 10437 10440 10441 10443 10445 10446 10447 10449 10452 10453 10453 10455 10458 10460 10464 10466 10467 10468 10469 10472 10475 10476 10477 10478 10481 10484 10487 10489 10491 10495 10499
10491 10487 10482 10478 10473 10469 10466 10462 10459 10455 10452 10448 10444 10440 10437 10433 10430 10426 10423 10421 10418 10415 10412 10410 10407 10405 10403 10401 10399 10398 10396 10395 10394 10394 10394 10394 10394 10394 10394 10395 10395 10396 10397 10399 10401 10403 10405 10406 10406 10407 10408 10410 10411 10413 10415 10418 10419 10421 10423 10425 10427 10428 10431 10433 10434 10436 10437 10440 10445 10448 10449 10449 10450 10454 10458 10458 10459 10460 10462 10466 10469 10472 10475 10477 10479
10473 10469 10464 10459 10455 10451 10447 10444 10441 10437 10434 10430 10426 10421 10417 10414 10410 10407 10405 10402 10399 10396 10393 10391 10389 10387 10385 10382 10380 10379 10377 10376 10375 10373 10373 10373 10373 10373 10374 10374 10374 10374 10375 10376 10378 10379 10381 10383 10385 10385 10386 10387 10388 10390 10392 10394 10397 10399 10400 10402 10404 10407 10409 10412 10414 10416 10417 10420 10424 10429 10431 10430 10431 10436 10440 10440 10442 10443 10443 10447 10450 10453 10457 10459 10460
10453 10449 10444 10439 10435 10432 10429 10425 10421 10417 10414 10411 10407 10403 10399 10395 10391 10388 10386 10383 10380 10377 10374 10372 10370 10368 10366 10364 10362 10360 10358 10357 10355 10354 10353 10353 10352 10353 10353 10353 10353 10353 10353 10354 10355 10357 10358 10360 10362 10363 10364 10365 10366 10367 10369 10371 10373 10375 10377 10379 10381 10384 10387 10390 10392 10395 10397 10399 10403 10408 10412 10412 10412 10417 10421 10422 10423 10424 10425 10428 10432 10434 10438 10441 10442
10434 10429 10425 10420 10416 10413 10409 10406 10401 10397 10394 10391 10387 10383 10379 10375 10372 10369 10366 10363 10361 10358 10356 10354 10352 10350 10348 10345 10344 10342 10340 10338 10337 10335 10334 10333 10333 10333 10333 10333 10333 10333 10333 10333 10333 10335 10336 10337 10338 10339 10340 10342 10343 10345 10347 10348 10349 10350 10353 10356 10358 10360 10364 10368 10371 10373 10376 10378 10382 10387 10391 10393 10394 10398 10403 10404 10404 10406 10407 10409 10413 10415 10417 10422 10424
10415 10410 10406 10402 10398 10394 10390 10387 10383 10380 10376 10372 10367 10363 10359 10355 10353 10350 10347 10344 10341 10340 10338 10335 10333 10331 10328 10326 10324 10323 10321 10320 10318 10317 10315 10314 10314 10313 10312 10312 10312 10313 10312 10312 10312 10313 10313 10314 10315 10316 10317 10318 10319 10321 10323 10325 10325 10326 10328 10332 10334 10337 10340 10345 10349 10353 10355 10357 10361 10366 10370 10372 10374 10379 10384 10385 10385 10387 10389 10391 10395 10397 10397 10400 10404
10396 10392 10387 10383 10379 10375 10371 10367 10363 10360 10357 10352 10348 10344 10340 10336 10333 10331 10328 10325 10322 10321 10319 10316 10314 10312 10310 10308 10306 10304 10302 10301 10300 10298 10296 10295 10294 10293 10293 10292 10292 10292 10292 10291 10291 10291 10291 10292 10293 10293 10294 10295 10296 10297 10299 10300 10301 10301 10303 10307 10311 10315 10318 10322 10326 10331 10334 10337 10340 10345 10349 10351 10353 10357 10362 10365 10365 10366 10369 10372 10376 10378 10378 10379 10383
10377 10373 10369 10365 10361 10357 10352 10347 10342 10339 10335 10331 10328 10324 10321 10317 10314 10312 10309 10306 10304 10302 10299 10297 10296 10294 10292 10291 10288 10287 10285 10283 10281 10279 10278 10276 10275 10274 10273 10272 10272 10272 10272 10272 10271 10271 10270 10270 10271 10272 10272 10273 10275 10276 10276 10276 10277 10278 10279 10283 10287 10292 10296 10300 10304 10308 10311 10315 10319 10323 10328 10330 10331 10334 10338 10342 10343 10345 10348 10351 10355 10357 10358 10359 10363
10359 10355 10351 10347 10343 10338 10333 10328 10323 10318 10314 10311 10308 10305 10302 10298 10296 10293 10290 10288 10286 10284 10281 10279 10278 10277 10275 10274 10272 10270 10268 10265 10263 10262 10260 10258 10257 10256 10254 10253 10252 10251 10251 10251 10251 10251 10251 10250 10250 10251 10252 10252 10254 10255 10255 10254 10254 10256 10258 10261 10265 10270 10274 10278 10282 10286 10289 10292 10295 10299 10304 10308 10309 10311 10314 10317 10320 10322 10325 10329 10333 10335 10336 10337 10342
10343 10338 10333 10329 10324 10320 10315 10310 10305 10300 10295 10292 10289 10286 10284 10281 10278 10275 10273 10271 10269 10266 10264 10262 10261 10259 10258 10257 10255 10253 10250 10247 10245 10243 10241 10240 10239 10238 10236 10235 10233 10232 10232 10231 10231 10231 10232 10232 10232 10232 10232 10233 10233 10234 10234 10232 10231 10234 10236 10239 10243 10248 10252 10257 10261 10265 10268 10271 10273 10276 10279 10284 10286 10288 10291 10294 10297 10299 10301 10305 10311 10313 10312 10316 10321
10325 10319 10314 10310 10305 10300 10296 10291 10286 10282 10278 10275 10272 10270 10267 10264 10261 10259 10257 10255 10253 10251 10248 10246 10244 10242 10241 10239 10237 10235 10232 10229 10227 10225 10223 10222 10221 10220 10219 10218 10216 10215 10214 10213 10213 10213 10213 10213 10214 10214 10214 10214 10214 10214 10213 10210 10210 10212 10214 10217 10221 10226 10231 10235 10240 10245 10248 10251 10252 10254 10257 10260 10263 10265 10268 10271 10273 10276 10277 10281 10287 10290 10290 10293 10298
10306 10301 10296 10291 10286 10281 10276 10272 10268 10264 10261 10259 10257 10255 10252 10250 10247 10245 10243 10241 10239 10237 10234 10231 10228 10226 10224 10222 10219 10217 10214 10212 10209 10208 10206 10205 10204 10202 10200 10199 10198 10197 10196 10195 10195 10195 10195 10194 10194 10195 10196 10195 10195 10193 10190 10188 10189 10191 10193 10196 10201 10206 10210 10214 10218 10222 10227 10230 10231 10232 10234 10237 10240 10243 10245 10247 10249 10252 10255 10258 10262 10266 10267 10269 10274
10287 10283 10278 10272 10268 10263 10259 10255 10251 10247 10244 10242 10240 10239 10237 10235 10234 10231 10228 10226 10224 10221 10218 10215 10213 10210 10207 10204 10202 10200 10197 10195 10193 10191 10189 10188 10186 10184 10183 10182 10181 10180 10178 10178 10178 10177 10177 10175 10174 10176 10177 10177 10176 10173 10168 10167 10169 10171 10172 10174 10180 10186 10190 10193 10197 10200 10203 10208 10210 10211 10212 10215 10218 10221 10223 10224 10226 10229 10231 10233 10236 10240 10244 10247 10252
10269 10265 10259 10255 10251 10247 10243 10239 10235 10231 10228 10225 10223 10221 10220 10219 10217 10215 10212 10210 10207 10204 10201 10198 10195 10192 10189 10187 10185 10183 10181 10178 10176 10174 10172 10170 10168 10167 10166 10165 10165 10164 10163 10163 10161 10159 10158 10157 10155 10157 10158 10158 10156 10152 10148 10149 10151 10152 10152 10153 10159 10167 10173 10176 10178 10179 10181 10184 10187 10189 10191 10194 10197 10200 10200 10201 10203 10205 10206 10207 10209 10213 10219 10225 10230
10252 10247 10243 10238 10235 10231 10228 10225 10221 10218 10215 10212 10209 10206 10204 10202 10200 10198 10196 10193 10190 10188 10184 10181 10178 10174 10172 10170 10168 10166 10165 10163 10161 10158 10156 10154 10152 10151 10149 10148 10149 10148 10147 10146 10145 10143 10142 10140 10138 10139 10141 10141 10138 10133 10130 10131 10132 10133 10133 10136 10142 10149 10154 10158 10160 10161 10161 10162 10164 10166 10169 10173 10176 10176 10176 10177 10178 10180 10181 10183 10185 10188 10194 10201 10206
10235 10231 10227 10223 10220 10217 10214 10211 10208 10205 10202 10199 10196 10193 10189 10186 10183 10180 10178 10176 10174 10172 10169 10166 10162 10158 10156 10154 10152 10150 10149 10147 10145 10142 10140 10138 10136 10135 10134 10133 10132 10131 10130 10129 10127 10126 10125 10123 10122 10122 10124 10126 10122 10114 10112 10115 10116 10116 10117 10120 10125 10130 10134 10137 10139 10139 10138 10139 10141 10143 10145 10150 10153 10153 10153 10153 10153 10154 10157 10160 10164 10168 10173 10178 10182
10219 10216 10212 10208 10205 10203 10200 10197 10194 10190 10187 10184 10181 10177 10174 10170 10167 10165 10163 10161 10159 10157 10154 10151 10147 10144 10141 10138 10136 10135 10133 10131 10129 10126 10125 10123 10121 10120 10119 10118 10117 10115 10113 10112 10111 10109 10108 10107 10107 10106 10106 10108 10104 10096 10096 10101 10102 10101 10102 10104 10107 10110 10112 10115 10117 10117 10116 10117 10119 10121 10124 10129 10133 10135 10135 10132 10129 10130 10134 10140 10146 10150 10154 10157 10161
10205 10201 10198 10194 10191 10189 10186 10184 10180 10177 10173 10169 10166 10162 10158 10155 10152 10150 10148 10146 10144 10142 10139 10136 10133 10130 10127 10124 10122 10121 10118 10115 10112 10110 10109 10108 10106 10104 10103 10102 10102 10101 10098 10096 10094 10094 10093 10092 10092 10090 10087 10089 10087 10081 10081 10086 10086 10085 10087 10089 10090 10092 10094 10096 10098 10098 10097 10098 10100 10101 10104 10109 10114 10118 10118 10113 10110 10111 10114 10121 10128 10133 10136 10139 10145
10191 10187 10183 10180 10178 10176 10173 10170 10167 10163 10159 10155 10151 10148 10144 10141 10139 10137 10134 10132 10129 10125 10122 10120 10117 10115 10113 10111 10109 10106 10103 10100 10097 10095 10094 10092 10090 10088 10087 10086 10087 10086 10083 10080 10079 10080 10078 10076 10075 10074 10070 10072 10072 10068 10066 10069 10069 10067 10070 10074 10076 10078 10080 10081 10082 10082 10081 10082 10083 10082 10084 10087 10093 10097 10096 10094 10093 10093 10096 10103 10109 10113 10117 10122 10131
10176 10172 10169 10167 10166 10163 10160 10156 10152 10148 10145 10141 10138 10135 10131 10128 10125 10123 10121 10118 10114 10110 10107 10104 10102 10100 10098 10096 10094 10091 10088 10085 10083 10081 10079 10077 10074 10073 10072 10071 10070 10069 10069 10067 10065 10065 10065 10060 10057 10056 10055 10056 10057 10055 10052 10052 10052 10051 10054 10057 10060 10063 10065 10065 10066 10066 10065 10065 10066 10066 10066 10067 10071 10076 10076 10074 10075 10075 10078 10085 10091 10093 10098 10107 10116
10161 10158 10157 10155 10153 10150 10147 10143 10138 10134 10131 10128 10124 10121 10118 10114 10111 10108 10106 10103 10100 10096 10093 10090 10088 10085 10084 10082 10079 10076 10074 10071 10069 10067 10065 10062 10061 10059 10058 10056 10054 10053 10054 10054 10052 10051 10050 10046 10040 10039 10039 10040 10040 10040 10038 10036 10036 10036 10039 10042 10044 10046 10048 10049 10050 10051 10050 10050 10050 10050 10051 10050 10052 10056 10057 10057 10057 10057 10059 10065 10071 10074 10081 10091 10094
10148 10146 10144 10142 10140 10137 10133 10129 10125 10121 10117 10113 10110 10107 10104 10100 10097 10094 10091 10088 10085 10082 10079 10076 10073 10072 10070 10067 10064 10062 10059 10057 10055 10054 10051 10048 10046 10046 10044 10041 10040 10040 10040 10040 10038 10036 10035 10032 10026 10023 10024 10024 10024 10025 10023 10020 10020 10022 10024 10026 10028 10029 10031 10034 10035 10034 10034 10035 10034 10034 10035 10035 10035 10038 10039 10040 10041 10041 10041 10046 10053 10057 10062 10067 10067
10135 10133 10130 10128 10126 10124 10120 10116 10112 10108 10103 10099 10096 10093 10090 10087 10084 10080 10076 10073 10069 10066 10063 10061 10058 10057 10055 10052 10049 10046 10044 10042 10041 10040 10037 10034 10032 10031 10030 10028 10027 10028 10028 10026 10023 10021 10020 10017 10012 10009 10009 10009 10009 10010 10009 10006 10005 10007 10009 10011 10012 10013 10015 10018 10019 10018 10017 10018 10019 10018 10019 10019 10019 10021 10022 10022 10024 10025 10025 10029 10035 10039 10040 10041 10042
10122 10119 10117 10115 10112 10110 10107 10103 10099 10094 10089 10086 10082 10080 10077 10074 10070 10066 10062 10058 10055 10051 10048 10045 10043 10042 10039 10037 10034 10031 10029 10028 10027 10025 10023 10020 10018 10017 10015 10014 10014 10015 10015 10012 10009 10006 10005 10002 9998 9995 9994 9993 9994 9994 9995 9994 9992 9993 9994 9995 9996 9997 9998 10001 10004 10004 10002 10002 10002 10002 10002 10002 10003 10003 10004 10004 10006 10008 10010 10014 10017 10019 10020 10021 10023
10110 10107 10104 10102 10099 10097 10094 10090 10086 10080 10075 10072 10069 10066 10064 10061 10057 10053 10048 10044 10041 10037 10034 10031 10029 10028 10025 10022 10020 10017 10015 10014 10013 10011 10009 10006 10004 10003 10002 10001 10001 10002 10001 9999 9995 9993 9991 9988 9985 9982 9978 9977 9979 9979 9979 9980 9981 9981 9980 9979 9980 9981 9982 9984 9988 9989 9988 9986 9986 9986 9985 9985 9986 9986 9986 9987 9989 9990 9993 9997 10000 10002 10003 10005 10006
10100 10097 10094 10090 10087 10084 10080 10076 10071 10066 10062 10058 10055 10053 10051 10047 10043 10039 10034 10031 10027 10024 10021 10018 10016 10014 10012 10009 10006 10003 10001 10001 9999 9997 9995 9992 9990 9990 9989 9988 9988 9988 9987 9985 9982 9979 9977 9975 9972 9969 9965 9963 9963 9964 9964 9966 9968 9969 9967 9965 9965 9965 9966 9968 9971 9973 9972 9972 9971 9970 9969 9967 9967 9968 9969 9971 9972 9973 9976 9980 9984 9985 9988 9990 9991
10088 10085 10082 10079 10075 10071 10067 10062 10058 10053 10048 10045 10042 10040 10037 10033 10028 10025 10020 10017 10014 10011 10007 10004 10002 10001 9999 9996 9993 9990 9989 9987 9985 9982 9981 9979 9978 9978 9976 9975 9975 9975 9973 9972 9969 9966 9964 9962 9960 9956 9953 9951 9949 9949 9950 9953 9954 9955 9954 9953 9952 9952 9951 9953 9955 9956 9957 9957 9957 9955 9952 9950 9949 9949 9951 9954 9957 9958 9959 9963 9967 9969 9972 9975 9977
10074 10072 10069 10066 10062 10058 10053 10049 10045 10041 10036 10032 10030 10028 10024 10020 10015 10011 10007 10004 10000 9997 9994 9991 9989 9988 9986 9983 9980 9978 9976 9974 9971 9968 9967 9965 9965 9965 9964 9962 9962 9961 9960 9958 9956 9953 9950 9949 9947 9943 9941 9939 9936 9936 9938 9940 9941 9940 9940 9940 9939 9938 9938 9938 9939 9941 9942 9942 9941 9939 9937 9935 9933 9933 9934 9937 9941 9942 9943 9946 9949 9952 9956 9960 9961
10059 10057 10054 10052 10048 10044 10040 10036 10032 10029 10025 10021 10018 10016 10012 10007 10003 9999 9996 9992 9988 9985 9982 9979 9977 9975 9973 9970 9968 9966 9964 9961 9958 9955 9953 9952 9951 9951 9951 9949 9949 9949 9948 9946 9943 9940 9937 9936 9934 9931 9929 9927 9924 9924 9926 9928 9928 9926 9925 9925 9925 9924 9924 9924 9925 9926 9927 9926 9926 9925 9924 9922 9920 9918 9918 9919 9923 9927 9928 9929 9931 9934 9939 9943 9945
10045 10042 10040 10037 10033 10029 10026 10022 10019 10016 10013 10009 10006 10003 10000 9995 9990 9987 9985 9981 9977 9974 9970 9967 9965 9963 9961 9958 9955 9953 9952 9949 9946 9943 9941 9939 9937 9937 9937 9936 9934 9935 9936 9935 9932 9928 9924 9922 9921 9919 9917 9915 9913 9912 9913 9914 9915 9913 9912 9912 9911 9910 9910 9910 9911 9911 9911 9910 9909 9910 9910 9909 9907 9907 9905 9904 9905 9910 9914 9914 9915 9917 9921 9926 9930
10032 10029 10026 10022 10018 10014 10012 10009 10006 10004 10000 9996 9993 9991 9988 9983 9978 9976 9974 9970 9967 9964 9960 9957 9954 9952 9949 9947 9944 9942 9940 9938 9935 9933 9930 9927 9923 9922 9924 9925 9923 9920 9920 9922 9921 9918 9913 9911 9909 9907 9905 9903 9902 9901 9900 9900 9900 9900 9899 9898 9898 9897 9896 9897 9898 9898 9896 9895 9895 9895 9894 9894 9894 9895 9894 9892 9891 9894 9899 9902 9901 9901 9904 9909 9913
10018 10015 10011 10008 10004 10001 9998 9995 9993 9991 9987 9983 9980 9979 9976 9971 9967 9965 9963 9960 9957 9954 9950 9946 9944 9941 9938 9935 9933 9931 9929 9926 9924 9922 9920 9917 9912 9908 9908 9910 9912 9911 9908 9907 9908 9907 9903 9900 9898 9896 9893 9891 9890 9890 9889 9888 9887 9886 9885 9884 9883 9882 9883 9885 9886 9885 9883 9881 9882 9882 9880 9879 9881 9882 9882 9881 9880 9880 9883 9887 9889 9889 9890 9892 9897